Terminal Aerodrome Forecast
Issued by NWS Cheyenne, WY

Home | Current Version | Previous Version | Text Only | Print | Product List | Glossary On
Versions: 1 2 3 4 5 6 7 8 9 10 11 12 13 14 15 16 17 18 19 20 21 22 23 24 25 26 27 28 29 30 31 32 33 34 35 36 37
000
FTUS45 KCYS 230700 AAA
TAFCYS
TAF AMD
KCYS 230705Z 2307/2406 21007KT P6SM -SHRA BKN007 OVC090
     FM230900 25008KT P6SM SCT010 BKN090
     FM231800 27013G20KT P6SM VCTS BKN100CB
     FM240000 27013KT P6SM SCT150=

USA.gov is the U.S. government's official web portal to all federal, state and local government web resources and services.